Regional Weather Roundup
Issued by NWS

Home | Current Version | Previous Version | Graphics & Text | Print | Product List | Glossary On
Versions: 1 2 3 4 5 6 7 8 9 10 11 12 13 14 15 16 17 18 19 20 21 22 23 24 25 26 27 28
000
ASUS45 KCYS 220810
RWRWY

WYOMING REGIONAL WEATHER ROUNDUP
NATIONAL WEATHER SERVICE CHEYENNE WY
200 AM MDT FRI JUL 22 2016

NOTE:  "FAIR" INDICATES FEW OR NO CLOUDS BELOW 12,000 FEET
WITH NO SIGNIFICANT WEATHER AND/OR OBSTRUCTIONS TO VISIBILITY.

WYZ001-220900-
YELLOWSTONE NATIONAL PARK

CITY           SKY/WX    TMP DP  RH WIND       PRES   REMARKS
LK YELLOWSTONE   N/A     48  35  60 NW3       30.40S
W YELLOWSTONE  NOT AVBL

$$
WYZ002>013-054>058-071-098>099-220900-
NORTHERN WYOMING

CITY           SKY/WX    TMP DP  RH WIND       PRES   REMARKS
JACKSON        FAIR      55  39  54 NE5       30.29F
CODY           FAIR      72  37  28 SW6       30.14F
GREYBULL       FAIR      77  40  26 S7        30.03R
WORLAND        FAIR      75  43  31 SE7       30.06F
SHERIDAN       FAIR      66  46  48 S5        30.08F
BUFFALO        FAIR      72  40  31 W10       30.19F
GILLETTE       FAIR      69  36  29 E5        30.12F
HULETT         FAIR      72  41  33 S6        30.15S
NEWCASTLE      FAIR      73  41  31 E7        30.15S

$$
WYZ014>020-022>026-101>103-220900-
CENTRAL WYOMING

CITY           SKY/WX    TMP DP  RH WIND       PRES   REMARKS
BIG PINEY      FAIR      56  42  59 NW6       30.37F
PINEDALE       PTSUNNY   54  43  66 CALM      30.39S
DUBOIS         FAIR      61  32  33 NW6       30.35S
LANDER         FAIR      79  37  22 E3        30.17F
RIVERTON       FAIR      74  43  32 S9        30.20S
CASPER         FAIR      70  44  39 SW13      30.22F
DOUGLAS          N/A    N/A N/A N/A MISG      30.21R

$$
WYZ021-027>030-104>119-220900-
SOUTHERN WYOMING

CITY           SKY/WX    TMP DP  RH WIND       PRES   REMARKS
EVANSTON       FAIR      65  41  41 SW12      30.38R
KEMMERER         N/A     57  36  44 NW6       30.38R
FORT BRIDGER   FAIR      61  37  42 NW3       30.38S
ROCK SPRINGS   FAIR      64  42  44 NE3       30.34S
DIXON          FAIR      54  49  85 CALM      30.40S
RAWLINS        FAIR      55  40  56 CALM      30.38S
SARATOGA       FAIR      59  46  63 SE10G17   30.41S
LARAMIE        MOCLDY    65  45  48 W3        30.40S
CHEYENNE       FAIR      72  45  37 W7        30.29S
TORRINGTON     FAIR      71  54  54 NE8       30.14F
PINE BLUFFS    FAIR      68  55  64 CALM      30.22R

$$




USA.gov is the U.S. government's official web portal to all federal, state and local government web resources and services.